Retour au catalogue

KUIPER-00617

ActifCommunicationsLEO
NORAD 69776·PAYLOAD·🇺🇸 United States

Lancé Jul 2, 2026 depuis Cape Canaveral Space Force Station

Loading…

Prochains Passages (prochaines 24 heures)

TLE

FraisSource: CelesTrak SupGP

Époque: Sep 14, 2026, 17:04 UTC

1 69776C 26151P   26257.71122685  .00000520  00000+0  68150-4 0  2571
2 69776  51.8989 249.7964 0000918 168.2936 129.5652 14.79883803    13

Suivez KUIPER-00617 en temps réel avec AllMySat

Download on the App Store